Starlink 33987

operational
NORAD ID: 63873 Int'l Des: 2025-094 Owner: SPXS Country: US Constellation: starlink
LEOCIRCULAR

About Starlink 33987

Description loading...

Live Position

Loading 3D Globe...

Upcoming Passes

Altitude History

Altitude vs Time

uPlot chart will show altitude changes over time

Two-Line Element Set

1 63873U 25094K 25338.81812960 .00022410 00000-0 18789-2 0 9997
2 63873 70.0012 113.6110 0003178 278.9076 81.1724 14.98350093 32998
Epoch: Dec 4, 2025 • Age: 29 hours

Current Status

Altitude 581.2 km
Velocity 7.57 km/s
Sub-Earth Point 51.59°N, 51.78°E
Launch Date May 10, 2025
Age 0.5 years
Type internet

Technical Details

Classification Payload
Mass 575.00 kg
Dry Mass 530.00 kg
Total Mass 575.00 kg
Length 0.30 m
Diameter 4.10 m
Span 29.00 m
Shape Box + pan
Manufacturer SPXS
Bus Type Starlink V2MO
Phase Status In Orbit
Owner/State SPXS/US

Large Constellations

Loading constellations...